Weather History for Pinedale, WY

Change the Weather History Date:

Tuesday, August 6, 2013

  Actual Average (KBPI) Record (KBPI)
Temperature  
Mean Temperature 58 °F 62 °F  
Max Temperature 80 °F 81 °F 99 °F (2003)
Min Temperature 35 °F 43 °F 32 °F (1990)
Degree Days  
Heating Degree Days 8 4  
Month to date heating degree days 20  
Since 1 June heating degree days 442  
Since 1 July heating degree days 137  
Cooling Degree Days 0 1  
Month to date cooling degree days 6  
Year to date cooling degree days 30  
Since 1 June cooling degree days 30  
Growing Degree Days 8 (Base 50)    
Moisture  
Dew Point 29 °F    
Average Humidity 40    
Maximum Humidity 87    
Minimum Humidity 11    
Precipitation  
Precipitation 0.00 in 0.03 in 0.10 in (2009)
Month to date precipitation 0.14  
Year to date precipitation 4.11  
Sea Level Pressure  
Sea Level Pressure 30.21 in    
Wind  
Wind Speed 8 mph (WNW)    
Max Wind Speed 24 mph    
Max Gust Speed 34 mph    
Visibility 10 miles    
Events      
T = Trace of Precipitation, MM = Missing Value Source: NWS Daily Summary

Daily Weather History Graph

Daily Weather History Graph

Search for Another Location

Airport:

Trip Planner

Search our weather history database for the weather conditions in past years. The results will help you decide how hot, cold, wet, or windy it might be!

Date:

Astronomy

Aug. 06, 2013 Rise Set
Actual Time 6:16 AM MDT 8:33 PM MDT
Civil Twilight 5:44 AM MDT 9:04 PM MDT
Nautical Twilight 5:05 AM MDT 9:43 PM MDT
Astronomical Twilight 4:22 AM MDT 10:26 PM MDT
Moon 6:12 AM MDT (8/6) 8:07 PM MDT (8/6)
Length of Visible Light 15h 19m
Length of Day
14h 17m
Waning Crescent, 0% of the Moon is Illuminated
Aug 6
Waning Crescent
Aug 6
New
Aug 14
First Quarter
Aug 20
Full
Aug 28
Last Quarter

Hourly Weather History & Observations

Time (MDT) Temp. Windchill Dew Point Humidity Pressure Visibility Wind Dir Wind Speed Gust Speed Precip Events Conditions
12:15 AM 44.6 °F 42.2 °F 33.8 °F 66% 30.21 in 10.0 mi NW 4.6 mph - N/A   Clear
12:35 AM 44.6 °F 41.4 °F 33.8 °F 66% 30.21 in 10.0 mi West 5.8 mph - N/A   Clear
12:55 AM 44.6 °F 41.4 °F 33.8 °F 66% 30.21 in 10.0 mi WNW 5.8 mph - N/A   Clear
1:15 AM 44.6 °F 43.1 °F 33.8 °F 66% 30.21 in 10.0 mi WNW 3.5 mph - N/A   Clear
1:35 AM 42.8 °F 39.3 °F 32.0 °F 66% 30.21 in 10.0 mi WNW 5.8 mph - N/A   Clear
1:55 AM 42.8 °F 39.3 °F 33.8 °F 70% 30.21 in 10.0 mi WNW 5.8 mph - N/A   Clear
2:15 AM 41.0 °F 37.1 °F 33.8 °F 76% 30.21 in 10.0 mi West 5.8 mph - N/A   Clear
2:35 AM 41.0 °F 37.1 °F 33.8 °F 76% 30.21 in 10.0 mi WNW 5.8 mph - N/A   Clear
2:55 AM 41.0 °F 37.1 °F 33.8 °F 76% 30.21 in 10.0 mi West 5.8 mph - N/A   Clear
3:15 AM 41.0 °F 35.8 °F 33.8 °F 76% 30.20 in 10.0 mi WNW 8.1 mph - N/A   Clear
3:35 AM 39.2 °F 35.0 °F 32.0 °F 75% 30.20 in 10.0 mi West 5.8 mph - N/A   Clear
3:55 AM 37.4 °F 32.8 °F 32.0 °F 81% 30.19 in 10.0 mi NW 5.8 mph - N/A   Clear
4:15 AM 39.2 °F 35.9 °F 32.0 °F 75% 30.20 in 10.0 mi NW 4.6 mph - N/A   Clear
4:35 AM 37.4 °F 32.1 °F 32.0 °F 81% 30.21 in 10.0 mi West 6.9 mph - N/A   Clear
4:55 AM 37.4 °F 32.8 °F 32.0 °F 81% 30.20 in 10.0 mi WNW 5.8 mph - N/A   Clear
5:15 AM 37.4 °F 34.9 °F 32.0 °F 81% 30.21 in 10.0 mi WSW 3.5 mph - N/A   Clear
5:35 AM 37.4 °F 32.8 °F 32.0 °F 81% 30.21 in 10.0 mi WNW 5.8 mph - N/A   Clear
5:55 AM 35.6 °F 28.6 °F 32.0 °F 87% 30.21 in 10.0 mi West 9.2 mph - N/A   Clear
6:15 AM 37.4 °F 31.4 °F 32.0 °F 81% 30.21 in 10.0 mi West 8.1 mph - N/A   Clear
6:35 AM 39.2 °F 33.6 °F 32.0 °F 75% 30.22 in 10.0 mi NW 8.1 mph - N/A   Clear
6:55 AM 41.0 °F 37.1 °F 32.0 °F 70% 30.22 in 10.0 mi West 5.8 mph - N/A   Clear
7:15 AM 41.0 °F 36.4 °F 32.0 °F 70% 30.23 in 10.0 mi West 6.9 mph - N/A   Clear
7:35 AM 44.6 °F 40.7 °F 32.0 °F 61% 30.23 in 10.0 mi WNW 6.9 mph - N/A   Clear
7:55 AM 46.4 °F 42.9 °F 32.0 °F 57% 30.23 in 10.0 mi WNW 6.9 mph - N/A   Clear
8:15 AM 51.8 °F - 32.0 °F 47% 30.23 in 10.0 mi WNW 6.9 mph - N/A   Clear
8:35 AM - - - N/A% - - North - - N/A   Unknown
8:55 AM 59.0 °F - 35.6 °F 42% 30.24 in - WNW 3.5 mph - N/A   Clear
9:15 AM 62.6 °F - 33.8 °F 34% 30.23 in 10.0 mi NNW 3.5 mph - N/A   Clear
9:35 AM 64.4 °F - 33.8 °F 32% 30.23 in 10.0 mi Calm Calm - N/A   Clear
9:55 AM 68.0 °F - 32.0 °F 26% 30.24 in 10.0 mi Calm Calm - N/A   Clear
10:35 AM 71.6 °F - 30.2 °F 22% 30.24 in - NNE 3.5 mph - N/A   Unknown
10:55 AM 71.6 °F - 30.2 °F 22% 30.24 in 10.0 mi North 4.6 mph - N/A   Clear
11:15 AM 73.4 °F - 30.2 °F 20% 30.23 in 10.0 mi NW 13.8 mph 19.6 mph N/A   Clear
11:35 AM 75.2 °F - 28.4 °F 18% 30.23 in 10.0 mi NNW 11.5 mph 18.4 mph N/A   Clear
11:55 AM 77.0 °F - 28.4 °F 17% 30.23 in 10.0 mi NW 17.3 mph 21.9 mph N/A   Clear
12:15 PM 78.8 °F - 28.4 °F 16% 30.22 in 10.0 mi WNW 12.7 mph 24.2 mph N/A   Clear
12:35 PM 78.8 °F - 26.6 °F 15% 30.22 in 10.0 mi WNW 21.9 mph 27.6 mph N/A   Scattered Clouds
12:55 PM 78.8 °F - 23.0 °F 13% 30.22 in 10.0 mi NW 24.2 mph 31.1 mph N/A   Scattered Clouds
1:15 PM 78.8 °F - 23.0 °F 13% 30.21 in 10.0 mi WNW 24.2 mph 34.5 mph N/A   Clear
1:35 PM 78.8 °F - 23.0 °F 13% 30.21 in 10.0 mi WNW 20.7 mph 27.6 mph N/A   Clear
1:55 PM 80.6 °F - 23.0 °F 12% 30.21 in 10.0 mi West 13.8 mph 25.3 mph N/A   Clear
2:15 PM 80.6 °F - 24.8 °F 13% 30.20 in 10.0 mi WNW 15.0 mph 28.8 mph N/A   Clear
2:35 PM 80.6 °F - 24.8 °F 13% 30.21 in 10.0 mi WNW 21.9 mph 27.6 mph N/A   Clear
2:55 PM 80.6 °F - 24.8 °F 13% 30.20 in 10.0 mi WNW 12.7 mph 31.1 mph N/A   Scattered Clouds
3:15 PM 80.6 °F - 24.8 °F 13% 30.20 in 10.0 mi NW 18.4 mph 26.5 mph N/A   Clear
3:35 PM 80.6 °F - 26.6 °F 14% 30.19 in 10.0 mi West 15.0 mph 26.5 mph N/A   Clear
3:55 PM 80.6 °F - 26.6 °F 14% 30.19 in 10.0 mi WNW 13.8 mph 20.7 mph N/A   Clear
4:15 PM 80.6 °F - 26.6 °F 14% 30.19 in 10.0 mi West 12.7 mph 26.5 mph N/A   Scattered Clouds
4:35 PM 80.6 °F - 24.8 °F 13% 30.19 in 10.0 mi West 15.0 mph 24.2 mph N/A   Clear
4:55 PM 80.6 °F - 23.0 °F 12% 30.19 in 10.0 mi WNW 18.4 mph 24.2 mph N/A   Clear
5:15 PM 80.6 °F - 23.0 °F 12% 30.18 in 10.0 mi West 18.4 mph 24.2 mph N/A   Clear
5:35 PM 80.6 °F - 23.0 °F 12% 30.18 in 10.0 mi WNW 13.8 mph 25.3 mph N/A   Clear
5:55 PM 80.6 °F - 23.0 °F 12% 30.18 in 10.0 mi West 15.0 mph 24.2 mph N/A   Clear
6:15 PM 78.8 °F - 21.2 °F 12% 30.18 in 10.0 mi West 18.4 mph 23.0 mph N/A   Clear
6:35 PM 78.8 °F - 19.4 °F 11% 30.18 in 10.0 mi NW 18.4 mph 24.2 mph N/A   Clear
6:55 PM 78.8 °F - 19.4 °F 11% 30.18 in 10.0 mi West 13.8 mph 23.0 mph N/A   Clear
7:15 PM 77.0 °F - 19.4 °F 12% 30.18 in 10.0 mi West 11.5 mph 18.4 mph N/A   Clear
7:35 PM 77.0 °F - 21.2 °F 12% 30.18 in 10.0 mi West 10.4 mph - N/A   Clear
7:55 PM 73.4 °F - 23.0 °F 15% 30.19 in 10.0 mi West 9.2 mph - N/A   Clear
8:15 PM 71.6 °F - 23.0 °F 16% 30.19 in 10.0 mi West 8.1 mph - N/A   Clear
8:35 PM 66.2 °F - 24.8 °F 21% 30.19 in 10.0 mi West 9.2 mph - N/A   Clear
8:55 PM 64.4 °F - 26.6 °F 24% 30.20 in 10.0 mi WNW 8.1 mph - N/A   Clear
9:15 PM 60.8 °F - 30.2 °F 31% 30.21 in 10.0 mi WNW 5.8 mph - N/A   Clear
9:35 PM 59.0 °F - 30.2 °F 34% 30.21 in 10.0 mi WNW 5.8 mph - N/A   Clear
9:55 PM 59.0 °F - 30.2 °F 34% 30.22 in 10.0 mi West 6.9 mph - N/A   Clear
10:15 PM 53.6 °F - 30.2 °F 41% 30.22 in 10.0 mi NW 4.6 mph - N/A   Clear
10:35 PM 53.6 °F - 32.0 °F 44% 30.22 in 10.0 mi NW 5.8 mph - N/A   Clear
10:55 PM 55.4 °F - 30.2 °F 38% 30.22 in 10.0 mi NW 8.1 mph - N/A   Clear
11:15 PM 51.8 °F - 32.0 °F 47% 30.23 in 10.0 mi Calm Calm - N/A   Clear
11:35 PM 50.0 °F - 32.0 °F 50% 30.23 in 10.0 mi West 3.5 mph - N/A   Clear
11:55 PM 50.0 °F - 30.2 °F 47% 30.23 in 10.0 mi WNW 3.5 mph - N/A   Clear